Skip Page Navigation
NASA JPL Caltech
NASA Logo - Jet Propulsion Laboratory + View the NASA Portal
+ Center for Near-Earth Object Studies
JPL Home Earth Solar System Stars & Galaxies Technology
JPL Solar System Dynamics
BODIES ORBITS EPHEMERIDES TOOLS PHYSICAL DATA DISCOVERY FAQ SITE MAP
JPL Small-Body Database Browser
Search: [ help ]  
11374 Briantaylor (1998 QU60)
Classification: Main-belt Asteroid          SPK-ID: 2011374
Ephemeris | Orbit Diagram | Orbital Elements | Mission Design | Physical Parameters | Discovery Circumstances | Close-Approach Data ]

[ show orbit diagram ]
Orbital Elements at Epoch 2459000.5 (2020-May-31.0) TDB
Reference: JPL 27 (heliocentric ecliptic J2000)
 Element Value Uncertainty (1-sigma)   Units 
e .1372084973525761 3.6843e-08  
a 2.341150424399446 9.0568e-09 au
q 2.019924692591252 8.8789e-08 au
i 6.89091327845142 5.0404e-06 deg
node 196.1139823235585 3.2397e-05 deg
peri 106.4591702999005 3.8223e-05 deg
M 44.72428817900274 1.8356e-05 deg
tp 2458837.951359403780
(2019-Dec-20.45135940)
6.6749e-05 TDB
period 1308.405633655501
3.58
7.5924e-06
2.079e-08
d
yr
n .2751440308264423 1.5966e-09 deg/d
Q 2.662376156207639 1.0299e-08 au
  Orbit Determination Parameters
   # obs. used (total)      1454  
   data-arc span      13295 days (36.40 yr)  
   first obs. used      1983-03-12  
   last obs. used      2019-08-05  
   planetary ephem.      DE431  
   SB-pert. ephem.      SB431-N16  
   condition code      0  
   norm. resid. RMS      .50974  
   source      ORB  
   producer      Otto Matic  
   solution date      2020-Feb-22 20:01:45  

Additional Information
 Earth MOID = 1.01807 au 
 Jupiter MOID = 2.5642 au 
 T_jup = 3.542 
[ hide covariance matrix ]
Orbital Elements at Epoch 2456597.5 (2013-Nov-01.0) TDB
Reference: JPL 27 (heliocentric ecliptic J2000)
 Element Value Uncertainty (1-sigma)   Units 
e .1369492432261583 3.6654e-08  
q 2.020889160166557 8.82e-08 au
tp 2456218.894031448019
(2012-Oct-18.39403145)
6.9436e-05 TDB
node 196.281472503629 3.2421e-05 deg
peri 106.0239855489925 3.827e-05 deg
i 6.887267569893958 5.0388e-06 deg
  Orbit Determination Parameters
   # obs. used (total)      1454  
   data-arc span      13295 days (36.40 yr)  
   first obs. used      1983-03-12  
   last obs. used      2019-08-05  
   planetary ephem.      DE431  
   SB-pert. ephem.      SB431-N16  
   condition code      0  
   norm. resid. RMS      .50974  
   source      ORB  
   producer      Otto Matic  
   solution date      2020-Feb-22 20:01:45  

Additional Information
 Jupiter MOID = 2.5642 au 
 T_jup = 3.542 
Orbit Covariance (6×6)
  e q tp node peri i
e 1.343502806409468E-15 -3.22125748623077E-15 6.186594666339798E-13 -9.65170919212217E-15 2.03694087674043E-13 -7.288861381572098E-16
q -3.22125748623077E-15 7.779279621353283E-15 -1.578330012531771E-12 2.340074791601914E-14 -5.097738497470745E-13 1.948097882752206E-15
tp 6.186594666339798E-13 -1.578330012531771E-12 4.821289807448474E-9 -4.252551391468417E-11 1.422031324699618E-9 1.523956572531119E-13
node -9.65170919212217E-15 2.340074791601914E-14 -4.252551391468417E-11 1.051108154360425E-9 -1.055063549969479E-9 6.861574470627953E-13
peri 2.03694087674043E-13 -5.097738497470745E-13 1.422031324699618E-9 -1.055063549969479E-9 1.464626835669601E-9 -6.575627224522108E-13
i -7.288861381572098E-16 1.948097882752206E-15 1.523956572531119E-13 6.861574470627953E-13 -6.575627224522108E-13 2.538922149601882E-11

Ephemeris | Orbit Diagram | Orbital Elements | Mission Design | Physical Parameters | Discovery Circumstances | Close-Approach Data ]

Physical Parameter Table
Parameter Symbol Value Units Sigma Reference Notes
absolute magnitude H 14.4   n/a MPO384857  

11374 Briantaylor           Discovered 1998 Aug. 23 by the Lowell Observatory Near-Earth-Object Search at Anderson Mesa Station.
Brian W. Taylor (b. 1964), a Lowell Observatory instrumentation software specialist, designed the controller for LONEOS and other observatory CCD cameras.
NOTE: some special characters may not display properly (any characters within {} are an attempt to place the proper accent above a character)
Reference: 20000726/MPCPages.arcLast Updated: 2013-03-29

[ show close-approach data ]
Alternate Designations
 1998 QU60 = 1987 MQ = 1991 RT19 = 1998 RR20 
Ephemeris | Orbit Diagram | Orbital Elements | Mission Design | Physical Parameters | Discovery Circumstances | Close-Approach Data ]
ABOUT SSD CREDITS/AWARDS PRIVACY/COPYRIGHT GLOSSARY LINKS
FirstGov 2020-Aug-04 08:37 UT
(server date/time)  
NASA Home Page
Site Manager:   Ryan S. Park
Webmaster  Alan B. Chamberlin